This is the latest recevied weather packets stored in our database for station/object F1DKL-13. If no packets are shown the sender has not sent any weather packets the latest 10 day(s).
| Time | Temp. | Humidity | Pressure | Rain* | Wind** | Luminosity | Snow |
|---|---|---|---|---|---|---|---|
| 1777465206 | 26.11° C | 2% | 1020.4 hPa | 0 mm | - | - | - |
| 1777464906 | 25.56° C | 2% | 1020.4 hPa | 0 mm | - | - | - |
| 1777464606 | 25.56° C | 2% | 1020.4 hPa | 0 mm | - | - | - |
| 1777464306 | 25.56° C | 2% | 1020.4 hPa | 0 mm | - | - | - |
| 1777464006 | 25° C | 2% | 1020.4 hPa | 0 mm | - | - | - |
| 1777463706 | 25° C | 2% | 1020.4 hPa | 0 mm | - | - | - |
| 1777463406 | 25.56° C | 2% | 1020.4 hPa | 0 mm | - | - | - |
| 1777463106 | 25.56° C | 2% | 1020.4 hPa | 0 mm | - | - | - |
| 1777462806 | 26.11° C | 2% | 1021.5 hPa | 0 mm | - | - | - |
| 1777462506 | 26.67° C | 2% | 1021.5 hPa | 0 mm | - | - | - |
| 1777462206 | 26.11° C | 21% | 1021.5 hPa | 0 mm | - | - | - |
| 1777461906 | 25.56° C | 21% | 1021.5 hPa | 0 mm | - | - | - |
| 1777461606 | 25.56° C | 8% | 1021.5 hPa | 0 mm | - | - | - |
| 1777461306 | 25° C | 13% | 1021.5 hPa | 0 mm | - | - | - |
| 1777461006 | 25° C | 20% | 1021.5 hPa | 0 mm | - | - | - |
| 1777460706 | 24.44° C | 2% | 1021.5 hPa | 0 mm | - | - | - |
| 1777460406 | 25.56° C | 24% | 1021.5 hPa | 0 mm | - | - | - |
| 1777460106 | 25° C | 3% | 1021.5 hPa | 0 mm | - | - | - |
| 1777459806 | 25° C | 2% | 1021.5 hPa | 0 mm | - | - | - |
| 1777459506 | 25° C | 8% | 1021.5 hPa | 0 mm | - | - | - |
| 1777459206 | 25° C | 10% | 1022.6 hPa | 0 mm | - | - | - |
| 1777458906 | 25° C | 24% | 1022.6 hPa | 0 mm | - | - | - |
| 1777458610 | 25° C | 21% | 1022.6 hPa | 0 mm | - | - | - |
| 1777458306 | 25° C | 29% | 1022.6 hPa | 0 mm | - | - | - |
| 1777458006 | 24.44° C | 26% | 1022.6 hPa | 0 mm | - | - | - |
* Rain latest hour (hover to see other rain measurements)
** Current wind speed in m/s (hover to see current wind gust speed)